Regional Weather Roundup
Issued by NWS Burlington, VT

Home | Current Version | Previous Version | Text Only | Print | Product List | Glossary On
Versions: 1 2 3 4 5 6 7 8 9 10 11 12 13 14 15 16 17 18 19 20 21 22 23 24 25 26 27 28 29 30 31 32 33 34 35 36 37 38 39 40 41 42 43 44 45 46 47 48 49 50
000
ASUS41 KBTV 080430
RWRBTV
VERMONT REGIONAL WEATHER ROUNDUP
NATIONAL WEATHER SERVICE BURLINGTON VT
1200 AM EDT WED JUL 08 2015

NOTE: "FAIR" INDICATES FEW OR NO CLOUDS BELOW 12,000 FEET WITH NO
SIGNIFICANT WEATHER AND/OR OBSTRUCTIONS TO VISIBILITY.

* THESE REPORTS ARE NOT UNDER NWS QUALITY CONTROL AND/OR DO NOT
  REPORT WEATHER SUCH AS PRECIPITATION AND FOG.

VTZ001>019-080500-
_____VERMONT_____


CITY           SKY/WX    TMP DP  RH WIND       PRES   REMARKS
BURLINGTON     MOCLDY    76  68  76 S16G25    29.81F
MONTPELIER     PTCLDY    70  67  90 S6        29.92S
MORRISVILLE    PTCLDY    75  66  73 VRB3      29.86S
ST. JOHNSBURY*   N/A     74  68  81 MISG      29.85F
LYNDONVILLE*   CLOUDY    71  68  92 SE5       29.90S
MIDDLEBURY*    FAIR      75  68  80 S8        29.86F
RUTLAND*       PTCLDY    70  61  73 SE7       29.90F
SPRINGFIELD    PTCLDY    71  69  93 S3        29.92R
HIGHGATE*      DRIZZLE   75  69  80 S6        29.79S
NEWPORT*       FAIR      68  66  94 S6        29.85F
BENNINGTON     CLEAR     74  68  81 VRB3      29.92F
SUTTON*          N/A     70 N/A N/A MISG        N/A
GALLUP MILLS*    N/A     68 N/A N/A MISG        N/A
MT. MANSFIELD*   N/A     63 N/A N/A W20G36      N/A

_____LAKE CHAMPLAIN_____


CITY           SKY/WX    TMP DP  RH WIND       PRES   REMARKS

$$

NYZ007-026>031-035-052-083-080500-
_____NORTHERN NEW YORK_____


CITY           SKY/WX    TMP DP  RH WIND       PRES   REMARKS
PLATTSBURGH    LGT RAIN  72  69  90 CALM      29.80S
SARANAC LAKE   CLOUDY    70  68  93 SW13      29.87F
MASSENA        CLOUDY    71  69  93 SW16      29.79S
OGDENSBURG*    CLOUDY    72  70  94 W13G20    29.82R
POTSDAM*       CLOUDY    72  72 100 SW12      29.82R
STARK FALLS*     N/A     72 N/A N/A SW9         N/A
WATERTOWN      CLOUDY    72  68  87 SW12      29.85R
FT DRUM        CLOUDY    72  68  89 SW12      29.85S
ALBANY         MOCLDY    74  70  87 S8        29.90S
GLENS FALLS    MOCLDY    69  66  90 CALM      29.88F

$$
NHZ002-005-011-080500-
_____NEW HAMPSHIRE_____


CITY           SKY/WX    TMP DP  RH WIND       PRES   REMARKS
LEBANON        MOCLDY    73  69  87 SW7       29.89S
KEENE          CLOUDY    72  66  83 S6        29.93F
MT WASHINGTON  FOG       55  55 100 W43         N/A  VSB 0
PLYMOUTH       MOCLDY    70  70 100 CALM      29.89F
WHITEFIELD     CLOUDY    70  66  87 CALM      29.89F

$$

_____REGIONAL QUEBEC LOCATIONS_____


CITY           SKY/WX    TMP DP  RH WIND       PRES   REMARKS
MONTREAL       CLOUDY    73  70  88 SW14      29.75F
QUEBEC CITY    LGT RAIN  73  68  83 W7        29.73
SHERBROOKE     CLEAR     72  68  88 S8        29.82S

_____REGIONAL ONTARIO LOCATIONS_____


CITY           SKY/WX    TMP DP  RH WIND       PRES   REMARKS
OTTAWA         LGT RAIN  61  61 100 NW14G22   29.86R FOG

______KEY______
VSB  - VISIBILITY IN MILES
WCI  - WIND CHILL INDEX
HX   - HEAT INDEX
$$
NNNN



USA.gov is the U.S. government's official web portal to all federal, state and local government web resources and services.